699  
NZUS93 KARX 010110  
HRRWXR  
 
CURRENT HOURLY OBSERVATIONS ACROSS  
MUCH OF THE UPPER MISSISSIPPI VALLEY  
NATIONAL WEATHER SERVICE LA CROSSE WI  
800 PM CDT THU JUL 31 2014  
 
   
..SOUTHEAST MINNESOTA
 
 
 
CITY SKY/WX TMP DP RH WIND PRES REMARKS  
ROCHESTER CLEAR 71 61 70 W5 30.03F  
ROCHESTER/MAYO FAIR 75 54 46 W6 30.02S  
WINONA CLEAR 75 59 57 CALM 30.00S  
AUSTIN CLEAR 73 55 53 CALM 30.03S  
ALBERT LEA CLEAR 73 61 64 CALM 30.03S  
DODGE CENTER CLEAR 73 61 64 W3 30.03S  
PRESTON CLEAR 72 63 74 W5 30.04S  
OWATONNA CLEAR 73 61 64 CALM 30.02F  
FARIBAULT CLEAR 75 57 53 CALM 30.02S  

 
   
..ELSEWHERE IN MINNESOTA
 
 
 
CITY SKY/WX TMP DP RH WIND PRES REMARKS  
MINNEAPOLIS PTCLDY 78 56 46 NW6 29.99S  
INTNL FALLS CLEAR 69 58 67 NW3 29.98S  
DULUTH CLEAR 73 57 57 NW3 29.98R  
RED WING CLEAR 75 63 64 CALM 29.98S  
REDWOOD FALLS CLEAR 77 57 50 CALM 30.01S  
MANKATO CLEAR 77 54 44 W3 30.02S  
WORTHINGTON PTCLDY 73 63 68 W5 30.06S  
FAIRMONT MOCLDY 73 59 60 E3 30.03S  

 
   
..SOUTHWEST WISCONSIN
 
 
 
CITY SKY/WX TMP DP RH WIND PRES REMARKS  
LA CROSSE PTCLDY 76 60 57 SW3 29.99S  
PRAIRIE DU CHI CLEAR 75 57 54 CALM 30.01S  
BOSCOBEL PTCLDY 76 62 62 CALM 30.01S  
LONE ROCK CLEAR 77 61 57 CALM 30.01R  
PLATTEVILLE CLEAR 73 59 61 W5 30.04S  
FORT MC COY PTCLDY 72 58 59 CALM 30.02R  
CAMP DOUGLAS PTCLDY 72 66 83 SW3 30.01R  
VIROQUA FAIR 71 60 67 W3 30.03S  
WIS DELLS CLEAR 73 56 55 CALM 30.02R  

 
   
..ELSEWHERE IN WISCONSIN
 
 
 
CITY SKY/WX TMP DP RH WIND PRES REMARKS  
MILWAUKEE PTCLDY 77 57 50 SW6 29.99S  
MADISON MOCLDY 76 58 53 VRB3 30.01R  
GREEN BAY PTCLDY 71 64 78 W6 29.97R  
EAU CLAIRE MOCLDY 74 60 61 CALM 29.99R  
BLACK RVR FLS FAIR 74 59 58 CALM 29.99S  
MEDFORD MOCLDY 67 60 80 W3 30.01R  
WAUSAU PTCLDY 71 61 70 W6 29.98R  
WIS RAPIDS PTCLDY 74 59 59 W3 30.01S  
MARSHFIELD MOCLDY 71 61 70 W6 30.00R  
RICE LAKE MOCLDY 69 60 72 CALM 30.01S  

 
   
..NORTHEAST IOWA
 
 
 
CITY SKY/WX TMP DP RH WIND PRES REMARKS  
WATERLOO CLEAR 75 58 55 W5 30.01F  
DUBUQUE CLEAR 72 61 68 W5 30.04S  
DECORAH CLEAR 73 57 56 CALM 30.02S  
MASON CITY CLEAR 75 59 57 CALM 30.04S  
CHARLES CITY CLEAR 73 64 73 CALM 30.04S  
OELWEIN CLEAR 73 63 68 W3 30.04S  

 
   
..ELSEWHERE IN IOWA
 
 
 
CITY SKY/WX TMP DP RH WIND PRES REMARKS  
DES MOINES CLOUDY 71 65 81 W5 30.04S  
IOWA CITY CLEAR 74 62 66 W3 30.04S  
FORT DODGE CLEAR 72 61 68 SW5 30.05S  
MARSHALLTOWN PTCLDY 74 64 71 SW3 30.03S  
CEDAR RAPIDS CLEAR 72 64 76 SW3 30.03S  

 
   
..NORTHERN ILLINOIS
 
 
 
CITY SKY/WX TMP DP RH WIND PRES REMARKS  
CHICAGO-OHARE PTCLDY 78 56 46 W9 30.02R  
DUPAGE CLEAR 75 60 59 SW6 30.03R  
CHICAGO-MIDWAY PTCLDY 80 58 46 W9 30.02S  
MOLINE CLEAR 76 63 64 CALM 30.03R  
ROCKFORD CLEAR 74 57 55 SW5 30.04S  
STERLING CLEAR 73 61 64 CALM 30.03F  
PEORIA CLEAR 76 61 59 CALM 30.05S  

 
 
NOTE: "FAIR" INDICATES FEW OR NO CLOUDS BELOW 12,000 FEET WITH NO  
SIGNIFICANT WEATHER AND/OR OBSTRUCTIONS TO VISIBILITY. WIND  
SPEEDS ARE IN MILES-PER-HOUR.  
 
CLICK HERE TO GO TO PREVIOUS BULLETINS.

The Nexlab WI Page
The Nexlab IA Page
The Nexlab MN Page Main Text Page